Flag for United Kingdom Weather past 2 weeks in Milton Keynes, England, United Kingdom

Now
55 °F

Passing clouds.


Feels Like: 51 °F
Forecast: 50 / 65 °F
Wind: 20 mph from West

Location: Luton Airport

Current Time: Jul 28, 2015 at 4:30:42 AM

Latest Report: Jul 28, 2015 at 3:50 AM


Visibility: N/A

Pressure: 29.62 "Hg

Humidity: 88%

Dew point: 52 °F

Location of Milton KeynesLocation

Historic Weather in Milton Keynes — Graph

°F

Milton Keynes temperature yesterday

Maximum temperature yesterday: 66 °F (at 12:20 PM)
Minimum temperature yesterday: 57 °F (at 12:20 AM)
Average temperature yesterday: 60 °F

Past Weeks' High & Low Weather Summary

 TemperatureHumidityPressure
High77 °F (Jul 21, 3:20 PM)100% (Jul 13, 4:20 AM)30.09 "Hg (Jul 13, 4:20 AM)
Low48 °F (Jul 23, 4:50 AM)31% (Jul 19, 5:20 PM)29.39 "Hg (Jul 27, 2:50 AM)
Average61 °F78%29.89 "Hg
* Reported Jul 13 3:20 AM — Jul 28 3:20 AM, Milton Keynes, Weather by CustomWeather, © 2015

Note: Actual official high and low records may vary slightly from our data, if they occured in-between our weather recording intervals... More about our weather records

Advertising

Milton Keynes weather history for previous 24 hours

 ConditionsComfort  
Time TempWeatherWind HumidityBarometerVisibility
3:20 AM
Tue, Jul 28
55 °FPassing clouds.17 mph88%29.62 "HgN/A
2:50 AM57 °FPassing clouds.18 mph88%29.62 "HgN/A
2:20 AM57 °FPassing clouds.17 mph88%29.59 "HgN/A
1:50 AM57 °FMostly cloudy.20 mph88%29.59 "HgN/A
1:20 AM57 °FPassing clouds.18 mph88%29.59 "HgN/A
12:50 AM57 °FPassing clouds.15 mph94%29.59 "HgN/A
12:20 AM57 °FPassing clouds.14 mph94%29.59 "Hg3 mi
11:50 PM
Mon, Jul 27
57 °FPassing clouds.12 mph94%29.59 "HgN/A
11:20 PM57 °FPassing clouds.12 mph88%29.59 "HgN/A
10:50 PM57 °FPassing clouds.15 mph88%29.59 "HgN/A
10:20 PM57 °FPassing clouds.15 mph82%29.59 "HgN/A
9:50 PM57 °FScattered clouds.17 mph82%29.59 "HgN/A
9:20 PM59 °FPassing clouds.14 mph77%29.59 "HgN/A
8:50 PM59 °FPassing clouds.16 mph77%29.59 "HgN/A
8:20 PM59 °FPartly sunny.20 mph77%29.59 "HgN/A
7:50 PM59 °FPartly sunny.20 mph77%29.59 "HgN/A
7:20 PM61 °FPartly sunny.17 mph72%29.59 "HgN/A
6:50 PM61 °FPartly sunny.20 mph72%29.56 "HgN/A
6:20 PM63 °FPartly sunny.22 mph68%29.56 "HgN/A
5:50 PM63 °FBroken clouds.18 mph68%29.56 "HgN/A
5:20 PM63 °FBroken clouds.20 mph73%29.56 "HgN/A
4:50 PM63 °FOvercast.20 mph68%29.56 "HgN/A
4:20 PM63 °FBroken clouds.16 mph68%29.56 "HgN/A
3:50 PM63 °FBroken clouds.18 mph73%29.56 "HgN/A
3:20 PM63 °FBroken clouds.17 mph73%29.53 "HgN/A
2:50 PM63 °FPartly sunny.22 mph68%29.53 "HgN/A
2:20 PM64 °FBroken clouds.18 mph73%29.53 "HgN/A
1:50 PM63 °FPartly sunny.15 mph77%29.53 "HgN/A
1:20 PM61 °FScattered clouds.18 mph83%29.53 "HgN/A
12:50 PM63 °FLight rain. Broken clouds.22 mph77%29.50 "HgN/A
12:20 PM66 °FScattered clouds.18 mph73%29.50 "HgN/A
11:50 AM64 °FBroken clouds.20 mph78%29.50 "HgN/A
11:20 AM64 °FPartly sunny.20 mph78%29.50 "HgN/A
10:50 AM64 °FPartly sunny.21 mph78%29.47 "HgN/A
10:20 AM63 °FPartly sunny.18 mph83%29.47 "HgN/A
9:50 AM63 °FPartly sunny.21 mph88%29.47 "HgN/A
9:20 AM61 °FPartly sunny.18 mph88%29.47 "HgN/A
8:50 AM59 °FPartly sunny.20 mph94%29.47 "HgN/A
8:20 AM59 °FBroken clouds.17 mph94%29.45 "HgN/A
7:50 AM59 °FBroken clouds.15 mph94%29.45 "HgN/A
7:20 AM59 °FScattered clouds.16 mph94%29.45 "Hg6 mi
6:50 AM57 °FLight rain. Partly sunny.15 mph100%29.45 "HgN/A
6:20 AM57 °FDrizzle. Partly sunny.16 mph100%29.42 "Hg2 mi
5:20 AM57 °FDrizzle. Mostly cloudy.16 mph100%29.42 "Hg4 mi
4:50 AM57 °FLow clouds.15 mph100%29.42 "Hg6 mi
4:20 AM57 °FPassing clouds.13 mph100%29.42 "Hg4 mi
Weather by CustomWeather, © 2015

See weather overviewHow to use our weather pages